This is the latest recevied weather packets stored in our database for station/object KE8DDT-7. If no packets are shown the sender has not sent any weather packets the latest 10 day(s).
| Time | Temp. | Humidity | Pressure | Rain* | Wind** | Luminosity | Snow |
|---|---|---|---|---|---|---|---|
| 1778026578 | 10.56° C | 50% | 1000.3 hPa | 0 mm | - | 0 W/m² | - |
| 1778026278 | 10.56° C | 50% | 1000.2 hPa | 0 mm | - | 5 W/m² | - |
| 1778025978 | 10.56° C | 51% | 1000.2 hPa | 0 mm | - | 5 W/m² | - |
| 1778025678 | 10.56° C | 51% | 1000.1 hPa | 0 mm | - | 9 W/m² | - |
| 1778025378 | 10.56° C | 50% | 1000 hPa | 0 mm | - | 11 W/m² | - |
| 1778024738 | 10.56° C | 49% | 999.9 hPa | 0 mm | - | 19 W/m² | - |
| 1778024021 | 11.11° C | 50% | 999.7 hPa | 0 mm | - | 28 W/m² | - |
| 1778023721 | 11.11° C | 50% | 999.6 hPa | 0 mm | - | 26 W/m² | - |
| 1778023422 | 11.11° C | 50% | 999.5 hPa | 0 mm | - | 51 W/m² | - |
| 1778023121 | 11.11° C | 51% | 999.6 hPa | 0 mm | - | 51 W/m² | - |
| 1778022825 | 11.11° C | 49% | 999.6 hPa | 0 mm | - | 39 W/m² | - |
| 1778022521 | 11.11° C | 53% | 999.5 hPa | 0 mm | - | 40 W/m² | - |
| 1778022221 | 11.11° C | 55% | 999.5 hPa | 0 mm | - | 51 W/m² | - |
| 1778021921 | 11.11° C | 53% | 999.4 hPa | 0 mm | - | 46 W/m² | - |
| 1778021621 | 11.11° C | 54% | 999.5 hPa | 0 mm | - | 54 W/m² | - |
| 1778021323 | 11.11° C | 55% | 999.5 hPa | 0 mm | - | 70 W/m² | - |
| 1778021020 | 11.11° C | 54% | 999.6 hPa | 0 mm | - | 77 W/m² | - |
| 1778020721 | 11.11° C | 54% | 999.7 hPa | 0 mm | - | 79 W/m² | - |
| 1778020122 | 11.67° C | 52% | 999.6 hPa | 0 mm | - | 102 W/m² | - |
| 1778019821 | 11.67° C | 52% | 999.7 hPa | 0 mm | - | 102 W/m² | - |
| 1778019521 | 11.67° C | 54% | 999.7 hPa | 0 mm | - | 107 W/m² | - |
| 1778019166 | 11.67° C | 53% | 999.7 hPa | 0 mm | - | 114 W/m² | - |
| 1778018866 | 11.67° C | 52% | 999.6 hPa | 0 mm | - | 118 W/m² | - |
| 1778018566 | 11.67° C | 52% | 999.7 hPa | 0 mm | - | 113 W/m² | - |
| 1778018266 | 11.67° C | 52% | 999.6 hPa | 0 mm | - | 121 W/m² | - |
* Rain latest hour (hover to see other rain measurements)
** Current wind speed in m/s (hover to see current wind gust speed)